Simultaneous Nadir Overpasses (SNOs) Predictions

Prediction of SNOs between GOES-17 and METOP-C Satellite Orbit:

Table of predicted SNOs for the next 14.0 days since TLE Epoch: 4/2/2022
Index Date Time (GOES-17) GOES-17 Lat,Lon METOP-C Lat,Lon Distance(km) Time Diff (sec)
1 04/02/2022 06:45:20 -0.04,-137.20 -0.24,-138.11 103.69 80
2 04/03/2022 06:22:01 -0.04,-137.20 0.86,-133.12 464.96 80
3 04/04/2022 18:43:33 0.04,-137.20 0.17,-137.68 55.79 80
4 04/07/2022 06:41:53 -0.03,-137.17 -0.08,-137.28 13.19 80
5 04/09/2022 18:40:06 0.03,-137.14 -0.02,-136.85 32.80 80
6 04/11/2022 06:56:25 -0.02,-137.11 -1.00,-141.44 493.66 80
7 04/12/2022 06:38:25 -0.02,-137.10 0.12,-136.45 73.61 80
8 04/13/2022 18:54:38 0.02,-137.07 0.89,-141.02 449.05 80
9 04/14/2022 18:36:38 0.02,-137.05 -0.24,-136.02 118.10 80
